カタログに戻る

STARLINK-37880

運用中通信SSO
NORAD 69546·PAYLOAD·🇺🇸 United States

打ち上げ Jun 15, 2026 から Vandenberg Space Force Base

Loading…

次のパス (今後24時間)

TLE

最新Source: CelesTrak SupGP

元期: Sep 15, 2026, 03:37 UTC

1 69546C 26135A   26258.15118056 -.00052244  00000+0 -16218-2 0  2583
2 69546  97.2830 285.9972 0001346  86.4196 359.1993 15.33465808    14

AllMySatでSTARLINK-37880をリアルタイム追跡

Download on the App Store